Location: Pinon Hills
(34.4429°N, 117.6403°W)
Time: 17:28:06
(UTC-07:00)

Amateur Radio Satellites - All Passes

Search period start: 27 August 2016 16:58
Search period end: 28 August 2016 16:58
Location: Pinon Hills, 34.4429°N, 117.6403°W

Satellite Date Start Highest point End Downlink Frequencies (MHz)
Time Altitude Azimuth
KKS-1 27 Aug 17:00:29 17:04:57 72° 284° (WNW) 17:09:21 437.445
MOZHAYETS 4 27 Aug 17:05:36 17:09:59 47° 286° (WNW) 17:14:22
Cosmos 2491 27 Aug 17:10:49 17:17:19 24° 82° (E) 17:23:48 435.465 / 435.565
GOMX 1 27 Aug 17:14:11 17:17:07 15° 64° (ENE) 17:20:07 467.674
Cubesat XI-IV 27 Aug 17:16:02 17:19:30 18° 65° (ENE) 17:23:00 437.490
HORYU 2 27 Aug 17:17:00 17:21:28 79° 257° (WSW) 17:25:56 437.375
CUTE-I 27 Aug 17:27:11 17:31:18 23° 67° (ENE) 17:35:24 437.470
NOAA 15 27 Aug 17:28:13 17:32:44 30° 69° (ENE) 17:37:17 137.62
YUBILEINY 27 Aug 17:32:18 17:40:57 60° 80° (E) 17:49:29 435.215
BRITE-PL 27 Aug 17:35:36 17:40:13 55° 74° (ENE) 17:45:16 437.365/2234.400
STARS 27 Aug 17:36:43 17:41:02 58° 286° (WNW) 17:45:19 437.465
LilacSat-2 27 Aug 17:41:45 17:44:48 23° 72° (ENE) 17:47:52 437.200
AO-7 27 Aug 17:45:27 17:49:17 14° 268° (W) 17:53:08 29.400- 29.500
Cosmos 2504 27 Aug 17:50:05 17:55:31 22° 72° (ENE) 18:00:54 435.465 / 435.565
BEESAT 3 27 Aug 17:52:42 17:54:20 12° 49° (NE) 17:55:58 437.485
HO-68 27 Aug 18:04:55 18:05:17 10° 54° (NE) 18:05:39 435.675
NOAA 18 27 Aug 18:05:21 18:10:41 50° 72° (ENE) 18:16:01 137.9125
CUBESAT XI-V 27 Aug 18:25:19 18:29:55 55° 285° (WNW) 18:34:30 437.345
CANX-2 27 Aug 18:49:25 18:50:42 11° 66° (ENE) 18:52:00 2200.000
GOMX 1 27 Aug 18:49:41 18:54:33 56° 261° (W) 18:59:47 467.674
Cubesat XI-IV 27 Aug 18:53:57 18:59:08 50° 260° (W) 19:04:20 437.490
CUTE 1.7 + AOD 2 27 Aug 18:55:26 18:56:48 11° 67° (ENE) 18:58:10 437.475
DOVE 4 27 Aug 18:56:07 19:01:13 76° 76° (ENE) 19:06:31 437.250
Cosmos 2491 27 Aug 19:04:49 19:13:22 61° 279° (W) 19:22:02 435.465 / 435.565
CUTE-I 27 Aug 19:06:09 19:11:04 38° 262° (W) 19:16:00 437.470
NOAA 15 27 Aug 19:08:00 19:12:25 27° 263° (W) 19:16:53 137.62
BEESAT 2 27 Aug 19:10:21 19:14:09 41° 58° (ENE) 19:17:57 435.950
LilacSat-2 27 Aug 19:16:14 19:19:01 19° 265° (W) 19:21:48 437.200
BRITE-PL 27 Aug 19:17:01 19:19:09 13° 271° (W) 19:21:21 437.365/2234.400
BEESAT 3 27 Aug 19:28:27 19:32:18 53° 245° (WSW) 19:36:09 437.485
YUBILEINY 27 Aug 19:30:24 19:37:00 25° 277° (W) 19:43:36 435.215
CINEMA 3 27 Aug 19:37:04 19:41:57 56° 75° (ENE) 19:46:51 145.822/145.860
Cosmos 2504 27 Aug 19:42:16 19:49:12 52° 269° (W) 19:56:06 435.465 / 435.565
HO-68 27 Aug 19:44:32 19:51:38 66° 71° (ENE) 19:58:45 435.675
STRAND 1 27 Aug 19:45:13 19:50:07 45° 100° (E) 19:55:00 437.568
NOAA 18 27 Aug 19:47:53 19:51:33 18° 266° (W) 19:55:13 137.9125
UWE-3 27 Aug 19:54:59 19:57:29 15° 68° (ENE) 19:59:59 435.000/436.395/437.385
CUBEBUG 2 27 Aug 19:56:05 19:59:48 24° 70° (ENE) 20:03:27 437.445
SEEDS 27 Aug 20:00:25 20:04:24 48° 75° (ENE) 20:08:25 437.485
AIST 1 27 Aug 20:04:17 20:08:00 26° 77° (ENE) 20:11:41
ZACube-1 27 Aug 20:09:57 20:11:59 13° 67° (ENE) 20:14:00 437.345
CANX-2 27 Aug 20:22:00 20:26:04 50° 260° (W) 20:30:10 2200.000
CUTE 1.7 + AOD 2 27 Aug 20:28:06 20:32:10 49° 261° (W) 20:36:15 437.475
AAUSAT CUBESAT 2 27 Aug 20:31:18 20:35:20 60° 76° (ENE) 20:39:23 437.432
DOVE 4 27 Aug 20:38:48 20:39:25 10° 271° (W) 20:40:03 437.250
COMPASS 1 27 Aug 20:39:22 20:43:28 81° 258° (WSW) 20:47:37 437.405
BEESAT 2 27 Aug 20:49:43 20:51:34 13° 252° (WSW) 20:53:25 435.950
PCSat 27 Aug 21:04:05 21:09:15 44° 59° (ENE) 21:14:23 145.827
Oscar 11 27 Aug 21:14:19 21:18:36 74° 76° (ENE) 21:22:55 145.826/435.025
CINEMA 3 27 Aug 21:16:50 21:19:20 14° 268° (W) 21:21:49 145.822/145.860
PRISM 27 Aug 21:17:19 21:21:21 45° 100° (E) 21:25:20 437.425
FUNcube-1 27 Aug 21:21:46 21:26:15 84° 76° (ENE) 21:30:38 145.935
AIST 2 27 Aug 21:22:19 21:26:20 43° 58° (ENE) 21:30:19 435.215
STRAND 1 27 Aug 21:25:31 21:28:53 18° 294° (WNW) 21:32:16 437.568
UWE-3 27 Aug 21:29:08 21:33:33 45° 261° (W) 21:37:54 435.000/436.395/437.385
CUBEBUG 2 27 Aug 21:32:11 21:36:14 29° 263° (W) 21:40:15 437.445
HO-68 27 Aug 21:34:51 21:39:45 19° 266° (W) 21:44:42 435.675
SEEDS 27 Aug 21:39:30 21:40:20 10° 268° (W) 21:41:10 437.485
AIST 1 27 Aug 21:42:10 21:45:23 20° 272° (W) 21:48:35
ZACube-1 27 Aug 21:43:29 21:47:50 49° 260° (W) 21:52:07 437.345
GONETS M04 27 Aug 21:49:29 21:54:44 17° 67° (ENE) 21:59:57
DELFI C3 27 Aug 22:09:12 22:13:03 57° 259° (W) 22:16:57 145.870
UNISAT 6 27 Aug 22:09:47 22:12:24 16° 94° (E) 22:15:00 437.425
HUMSAT D 27 Aug 22:28:31 22:32:41 78° 258° (WSW) 22:36:50 437.325/437.525
SO-50 27 Aug 22:33:47 22:37:20 20° 110° (ESE) 22:40:52 436.795
AUBIESAT-1 27 Aug 22:34:06 22:38:22 38° 68° (ENE) 22:42:40 437.475
CUBEBUG 1 27 Aug 22:35:31 22:36:39 11° 65° (ENE) 22:37:48 437.445
M-CUBED/EXP-1 PRIME 27 Aug 22:39:35 22:44:07 55° 70° (ENE) 22:48:44 437.505
ANTELSAT 27 Aug 22:45:31 22:49:35 42° 99° (E) 22:53:37 437.575/2403.000
Cosmos 2499 27 Aug 22:46:32 22:52:22 27° 74° (ENE) 22:58:15 435.465 / 435.565
PCSat 27 Aug 22:48:19 22:52:17 21° 254° (WSW) 22:56:13 145.827
PRISM 27 Aug 22:54:26 22:56:13 12° 294° (WNW) 22:57:59 437.425
50 SAT 27 Aug 22:58:25 23:00:01 13° 68° (ENE) 23:01:37 437.505
AIST 2 27 Aug 23:02:20 23:04:24 13° 252° (WSW) 23:06:28 435.215
ESTCUBE 1 27 Aug 23:11:58 23:16:14 47° 74° (ENE) 23:20:32 437.505/2401.250
TIGRISAT 27 Aug 23:16:16 23:20:33 83° 282° (WNW) 23:24:47 435.000
AISAT 27 Aug 23:19:46 23:23:41 31° 71° (ENE) 23:27:38 437.250
DUCHIFAT 1 27 Aug 23:20:14 23:20:57 10° 92° (E) 23:21:41 145.980
QB50P2 27 Aug 23:21:44 23:24:03 14° 94° (E) 23:26:21 145.880/145.840
POLYITAN 1 27 Aug 23:24:13 23:26:34 14° 94° (E) 23:28:54 437.675
UKube-1 27 Aug 23:28:34 23:31:35 19° 68° (ENE) 23:34:38 .
NANOSAT C BR1 27 Aug 23:32:17 23:35:02 17° 94° (E) 23:37:47 145.865
GONETS M04 27 Aug 23:43:44 23:52:39 87° 263° (W) 00:01:28
UNISAT 6 27 Aug 23:45:20 23:49:11 34° 288° (WNW) 23:53:01 437.425
CUSAT 1 28 Aug 00:01:41 00:04:15 33° 284° (WNW) 00:07:18 437.405
JAS-2 28 Aug 00:01:56 00:07:58 29° 96° (E) 00:14:24 435.910
VELOX 1 28 Aug 00:06:30 00:10:56 77° 258° (WSW) 00:15:24 145.980
CUBEBUG 1 28 Aug 00:08:04 00:12:22 59° 259° (W) 00:16:45 437.445
AUBIESAT-1 28 Aug 00:09:38 00:12:50 19° 261° (W) 00:16:06 437.475
O/OREOS (USA 219) 28 Aug 00:10:20 00:14:57 82° 70° (ENE) 00:19:34 437.305
BUGSAT 1 28 Aug 00:12:30 00:15:25 19° 95° (E) 00:18:17 437.445
SO-50 28 Aug 00:12:58 00:17:32 40° 304° (NW) 00:22:05 436.795
QB50P1 28 Aug 00:15:17 00:19:28 63° 101° (E) 00:23:37 145.935-145.965
M-CUBED/EXP-1 PRIME 28 Aug 00:16:39 00:18:51 13° 263° (W) 00:21:05 437.505
DX 1 28 Aug 00:22:59 00:27:20 73° 258° (WSW) 00:31:43 434.975-435.025
ANTELSAT 28 Aug 00:23:50 00:25:54 13° 293° (WNW) 00:27:57 437.575/2403.000
SPROUT 28 Aug 00:24:25 00:28:43 82° 79° (ENE) 00:33:03 437.525
POPSAT HIP 1 28 Aug 00:25:17 00:29:31 84° 100° (E) 00:33:42 437.405
50 SAT 28 Aug 00:30:06 00:33:16 30° 262° (W) 00:36:28 437.505
RS-15 28 Aug 00:38:02 00:48:44 49° 108° (ESE) 00:59:58 29.354- 29.394
Cosmos 2499 28 Aug 00:39:01 00:45:33 43° 270° (W) 00:52:14 435.465 / 435.565
TISAT 1 28 Aug 00:43:21 00:46:52 26° 71° (ENE) 00:50:23 437.305
PHONESAT 2.4 28 Aug 00:47:43 00:50:20 27° 148° (SSE) 00:52:57 2401.200-2431.200
ESTCUBE 1 28 Aug 00:51:15 00:53:15 13° 267° (W) 00:55:15 437.505/2401.250
DUCHIFAT 1 28 Aug 00:52:50 00:56:53 49° 285° (WNW) 01:00:54 145.980
QB50P2 28 Aug 00:56:04 00:59:57 36° 287° (WNW) 01:03:48 145.880/145.840
AISAT 28 Aug 00:56:58 01:00:09 19° 265° (W) 01:03:22 437.250
POLYITAN 1 28 Aug 00:58:36 01:02:27 36° 287° (WNW) 01:06:17 437.675
DANDE 28 Aug 01:02:06 01:03:56 17° 285° (WNW) 01:05:48 436.750
UKube-1 28 Aug 01:03:33 01:07:23 31° 262° (W) 01:11:14 .
NANOSAT C BR1 28 Aug 01:07:05 01:10:48 31° 288° (WNW) 01:14:28 145.865
ITUPSAT 1 28 Aug 01:28:23 01:31:14 16° 66° (ENE) 01:34:05 437.325
GONETS M04 28 Aug 01:44:08 01:48:03 14° 282° (WNW) 01:51:57
JAS-2 28 Aug 01:46:22 01:52:59 48° 288° (WNW) 02:00:13 435.910
BUGSAT 1 28 Aug 01:47:17 01:50:45 27° 289° (WNW) 01:54:11 437.445
Oscar 19 28 Aug 01:48:27 01:53:20 40° 99° (E) 01:58:12 437.125/150
SWISSCUBE 28 Aug 01:59:28 02:03:51 39° 72° (ENE) 02:08:16 437.505
BEESAT 28 Aug 02:16:17 02:20:55 54° 74° (ENE) 02:25:33 436.000
TISAT 1 28 Aug 02:19:10 02:22:26 21° 264° (W) 02:25:42 437.305
PHONESAT 2.4 28 Aug 02:23:40 02:26:35 47° 342° (NNW) 02:29:30 2401.200-2431.200
RS-15 28 Aug 02:50:14 03:01:10 47° 310° (NW) 03:12:44 29.354- 29.394
Gurwin Techsat 1B 28 Aug 03:01:26 03:06:46 85° 284° (WNW) 03:12:04 435.225
ITAMSAT 1 28 Aug 03:03:45 03:08:06 27° 97° (E) 03:12:28 435.822/435.867
ITUPSAT 1 28 Aug 03:04:06 03:08:39 45° 260° (W) 03:13:14 437.325
Oscar 19 28 Aug 03:28:32 03:32:20 21° 293° (WNW) 03:36:07 437.125/150
SWISSCUBE 28 Aug 03:38:37 03:41:45 17° 266° (W) 03:44:54 437.505
AO-7 28 Aug 03:53:22 04:01:03 40° 100° (E) 04:08:41 29.400- 29.500
KKS-1 28 Aug 03:54:35 03:59:01 66° 75° (ENE) 04:03:28 437.445
BEESAT 28 Aug 03:56:57 03:58:58 13° 267° (W) 04:00:59 436.000
PHONESAT 2.4 28 Aug 04:00:47 04:03:19 24° 358° (N) 04:05:50 2401.200-2431.200
MOZHAYETS 4 28 Aug 04:03:24 04:07:57 77° 258° (WSW) 04:12:32
AO-85 28 Aug 04:11:53 04:15:49 21° 110° (ESE) 04:19:39 145.980
STARS 28 Aug 04:29:15 04:33:41 77° 76° (ENE) 04:38:08 437.465
YUBILEINY 28 Aug 04:39:16 04:41:35 11° 76° (ENE) 04:43:55 435.215
ITAMSAT 1 28 Aug 04:43:02 04:47:29 30° 291° (WNW) 04:51:56 435.822/435.867
RS-15 28 Aug 05:11:19 05:18:01 16° 340° (NNW) 05:24:52 29.354- 29.394
HORYU 2 28 Aug 05:12:01 05:15:39 25° 97° (E) 05:19:16 437.375
Cosmos 2491 28 Aug 05:19:26 05:28:08 58° 80° (E) 05:36:46 435.465 / 435.565
CUBESAT XI-V 28 Aug 05:24:37 05:29:13 87° 260° (W) 05:33:51 437.345
PHONESAT 2.4 28 Aug 05:37:16 05:40:06 37° 15° (NNE) 05:42:54 2401.200-2431.200
BRITE-PL 28 Aug 05:44:10 05:49:01 28° 95° (E) 05:53:42 437.365/2234.400
AO-7 28 Aug 05:46:10 05:53:42 40° 296° (WNW) 06:01:12 29.400- 29.500
NOAA 15 28 Aug 05:47:58 05:50:57 15° 93° (E) 05:53:54 137.62
CUTE-I 28 Aug 05:49:39 05:51:08 11° 91° (E) 05:52:37 437.470
AO-85 28 Aug 05:50:55 05:56:02 45° 303° (WNW) 06:00:55 145.980
Cosmos 2504 28 Aug 06:23:58 06:30:18 24° 85° (E) 06:36:20 435.465 / 435.565
YUBILEINY 28 Aug 06:28:00 06:36:48 77° 93° (E) 06:45:38 435.215
NOAA 18 28 Aug 06:31:30 06:36:09 28° 97° (E) 06:40:46 137.9125
HORYU 2 28 Aug 06:48:33 06:52:04 24° 291° (WNW) 06:55:36 437.375
LilacSat-2 28 Aug 06:51:52 06:55:35 55° 100° (E) 06:59:16 437.200
GOMX 1 28 Aug 06:55:16 07:00:36 62° 100° (E) 07:05:36 467.674
STRAND 1 28 Aug 06:57:33 07:02:23 45° 72° (ENE) 07:07:15 437.568
ISS 28 Aug 06:58:48 06:59:25 10° 126° (SE) 07:00:03 145.825
DOVE 4 28 Aug 06:59:47 07:04:01 28° 95° (E) 07:08:01 437.250
PHONESAT 2.4 28 Aug 07:13:37 07:16:27 40° 210° (SSW) 07:19:17 2401.200-2431.200
Cubesat XI-IV 28 Aug 07:14:36 07:19:56 87° 104° (ESE) 07:25:15 437.490
Cosmos 2491 28 Aug 07:17:26 07:24:18 26° 277° (W) 07:31:10 435.465 / 435.565
HO-68 28 Aug 07:19:08 07:22:23 13° 91° (E) 07:25:36 435.675
BRITE-PL 28 Aug 07:22:19 07:27:24 34° 290° (WNW) 07:32:21 437.365/2234.400
NOAA 15 28 Aug 07:25:48 07:31:00 56° 287° (WNW) 07:36:10 137.62
CUTE-I 28 Aug 07:26:19 07:31:37 72° 285° (WNW) 07:36:53 437.470
RS-15 28 Aug 07:31:29 07:38:14 16° 19° (NNE) 07:44:58 29.354- 29.394
CINEMA 3 28 Aug 07:37:15 07:39:57 16° 93° (E) 07:42:34 145.822/145.860
SEEDS 28 Aug 07:50:31 07:51:17 10° 92° (E) 07:52:03 437.485
PRISM 28 Aug 08:03:57 08:06:58 20° 69° (ENE) 08:10:00 437.425
CANX-2 28 Aug 08:10:32 08:14:24 34° 98° (E) 08:18:16 2200.000
NOAA 18 28 Aug 08:11:58 08:16:44 32° 291° (WNW) 08:21:29 137.9125
Cosmos 2504 28 Aug 08:14:42 08:23:06 60° 279° (W) 08:30:59 435.465 / 435.565
CUTE 1.7 + AOD 2 28 Aug 08:16:30 08:20:23 34° 98° (E) 08:24:15 437.475
AAUSAT CUBESAT 2 28 Aug 08:18:57 08:20:40 12° 93° (E) 08:22:23 437.432
COMPASS 1 28 Aug 08:26:24 08:29:32 20° 95° (E) 08:32:39 437.405
YUBILEINY 28 Aug 08:28:32 08:34:27 19° 292° (WNW) 08:40:25 435.215
AIST 1 28 Aug 08:30:27 08:33:26 18° 88° (E) 08:36:28
ISS 28 Aug 08:32:16 08:35:29 55° 319° (NW) 08:38:44 145.825
GOMX 1 28 Aug 08:35:10 08:38:00 15° 296° (WNW) 08:40:45 467.674
DOVE 4 28 Aug 08:37:27 08:41:33 26° 291° (WNW) 08:45:27 437.250
STRAND 1 28 Aug 08:38:27 08:41:44 17° 266° (W) 08:45:01 437.568
SO-50 28 Aug 08:47:36 08:52:10 69° 60° (ENE) 08:56:35 436.795
CUSAT 1 28 Aug 08:55:30 08:58:28 13° 70° (ENE) 09:01:37 437.405
Cubesat XI-IV 28 Aug 08:58:50 08:59:12 10° 299° (WNW) 08:59:35 437.490
BEESAT 2 28 Aug 08:59:56 09:02:31 17° 110° (ESE) 09:05:08 435.950
HO-68 28 Aug 09:03:35 09:10:47 86° 285° (WNW) 09:17:56 435.675
Oscar 11 28 Aug 09:06:07 09:09:01 17° 94° (E) 09:11:53 145.826/435.025
UNISAT 6 28 Aug 09:07:00 09:08:04 11° 65° (ENE) 09:09:07 437.425
CINEMA 3 28 Aug 09:13:09 09:17:13 35° 288° (WNW) 09:21:07 145.822/145.860
FUNcube-1 28 Aug 09:14:20 09:17:19 19° 95° (E) 09:20:17 145.935
BEESAT 3 28 Aug 09:15:16 09:19:05 58° 116° (ESE) 09:22:56 437.485
UWE-3 28 Aug 09:22:25 09:26:24 43° 99° (E) 09:30:20 435.000/436.395/437.385
SEEDS 28 Aug 09:23:08 09:27:13 50° 285° (WNW) 09:31:17 437.485
CUBEBUG 2 28 Aug 09:26:06 09:30:19 80° 102° (ESE) 09:34:27 437.445
ZACube-1 28 Aug 09:35:29 09:39:21 38° 98° (E) 09:43:12 437.345
JUGNU 28 Aug 09:35:57 09:37:19 11° 164° (SSE) 09:38:40 437.505
PRISM 28 Aug 09:38:42 09:42:05 25° 263° (W) 09:45:31 437.425
ANTELSAT 28 Aug 09:40:52 09:44:42 26° 71° (ENE) 09:48:28 437.575/2403.000
RS-15 28 Aug 09:43:37 09:55:19 45° 50° (NE) 10:06:45 29.354- 29.394
CANX-2 28 Aug 09:47:17 09:49:57 17° 291° (WNW) 09:52:38 2200.000
DELFI C3 28 Aug 09:50:41 09:53:51 22° 96° (E) 09:56:59 145.870
AAUSAT CUBESAT 2 28 Aug 09:52:22 09:56:18 42° 286° (WNW) 10:00:14 437.432
CUTE 1.7 + AOD 2 28 Aug 09:53:16 09:55:54 16° 292° (WNW) 09:58:34 437.475
DANDE 28 Aug 09:57:34 10:00:56 15° 75° (ENE) 10:04:41 436.750
COMPASS 1 28 Aug 10:01:32 10:05:01 26° 289° (WNW) 10:08:30 437.405
AIST 1 28 Aug 10:07:02 10:10:46 28° 282° (WNW) 10:14:34
TIGRISAT 28 Aug 10:10:49 10:15:19 55° 75° (ENE) 10:19:46 435.000
HUMSAT D 28 Aug 10:16:08 10:19:12 20° 95° (E) 10:22:17 437.325/437.525
CUSAT 1 28 Aug 10:34:09 10:40:57 81° 81° (E) 10:48:53 437.405
BEESAT 2 28 Aug 10:36:33 10:40:05 31° 305° (NW) 10:43:38 435.950
UNISAT 6 28 Aug 10:39:37 10:44:13 64° 259° (W) 10:48:43 437.425
Oscar 11 28 Aug 10:41:19 10:45:10 32° 288° (WNW) 10:49:00 145.826/435.025
GONETS M04 28 Aug 10:46:31 10:52:37 22° 81° (E) 10:58:44
FUNcube-1 28 Aug 10:50:04 10:53:31 26° 289° (WNW) 10:56:58 145.935
HO-68 28 Aug 10:54:01 10:57:26 14° 303° (WNW) 11:00:52 435.675
BEESAT 3 28 Aug 10:55:50 10:57:05 11° 312° (NW) 10:58:21 437.485
UWE-3 28 Aug 11:00:44 11:02:26 12° 293° (WNW) 11:04:06 435.000/436.395/437.385
QB50P1 28 Aug 11:04:18 11:08:00 29° 72° (ENE) 11:11:43 145.935-145.965
ESTCUBE 1 28 Aug 11:09:38 11:11:49 13° 93° (E) 11:14:00 437.505/2401.250
ZACube-1 28 Aug 11:13:09 11:15:16 14° 293° (WNW) 11:17:24 437.345
POPSAT HIP 1 28 Aug 11:14:06 11:18:03 37° 73° (ENE) 11:22:01 437.405
AIST 2 28 Aug 11:17:10 11:20:16 21° 111° (ESE) 11:23:24 435.215
ANTELSAT 28 Aug 11:17:32 11:21:18 24° 264° (W) 11:25:01 437.575/2403.000
Cosmos 2499 28 Aug 11:18:51 11:25:23 27° 86° (E) 11:31:33 435.465 / 435.565
JUGNU 28 Aug 11:21:42 11:25:35 18° 174° (S) 11:29:28 437.505
DELFI C3 28 Aug 11:25:27 11:28:33 22° 289° (WNW) 11:31:40 145.870
DANDE 28 Aug 11:37:53 11:43:42 75° 263° (W) 11:51:11 436.750
DUCHIFAT 1 28 Aug 11:40:32 11:44:46 72° 76° (ENE) 11:49:01 145.980
PCSat 28 Aug 11:41:40 11:47:04 84° 114° (ESE) 11:52:31 145.827
QB50P2 28 Aug 11:44:21 11:48:37 83° 258° (WSW) 11:52:55 145.880/145.840
POLYITAN 1 28 Aug 11:46:51 11:51:09 82° 258° (WSW) 11:55:26 437.675
TIGRISAT 28 Aug 11:50:41 11:52:14 12° 268° (W) 11:53:48 435.000
AUBIESAT-1 28 Aug 11:51:09 11:54:55 43° 103° (ESE) 11:58:23 437.475
HUMSAT D 28 Aug 11:51:25 11:54:44 24° 289° (WNW) 11:58:04 437.325/437.525
NANOSAT C BR1 28 Aug 11:54:45 11:58:59 70° 258° (WSW) 12:03:15 145.865
JAS-2 28 Aug 11:55:52 12:00:50 50° 72° (ENE) 12:06:05 435.910
RS-15 28 Aug 11:56:15 12:08:02 54° 251° (WSW) 12:19:31 29.354- 29.394
M-CUBED/EXP-1 PRIME 28 Aug 11:57:26 12:01:27 70° 106° (ESE) 12:05:07 437.505
CUBEBUG 1 28 Aug 12:00:24 12:04:24 32° 98° (E) 12:08:21 437.445
VELOX 1 28 Aug 12:00:39 12:04:23 26° 97° (E) 12:08:05 145.980
50 SAT 28 Aug 12:01:40 12:04:41 24° 97° (E) 12:07:41 437.505
SPROUT 28 Aug 12:14:57 12:17:54 18° 95° (E) 12:20:49 437.525
DX 1 28 Aug 12:15:15 12:18:51 25° 97° (E) 12:22:26 434.975-435.025
CUSAT 1 28 Aug 12:18:21 12:22:28 17° 273° (W) 12:26:53 437.405
BUGSAT 1 28 Aug 12:32:17 12:36:31 66° 259° (W) 12:40:45 437.445
GONETS M04 28 Aug 12:39:50 12:48:31 68° 279° (W) 12:57:18
QB50P1 28 Aug 12:40:43 12:43:46 19° 265° (W) 12:46:48 145.935-145.965
O/OREOS (USA 219) 28 Aug 12:42:05 12:44:28 14° 99° (E) 12:46:51 437.305
Gurwin Techsat 1B 28 Aug 12:43:06 12:44:55 12° 62° (ENE) 12:46:44 435.225
ESTCUBE 1 28 Aug 12:44:29 12:48:49 46° 286° (WNW) 12:53:10 437.505/2401.250
AISAT 28 Aug 12:49:08 12:53:37 78° 284° (WNW) 12:58:02 437.250
POPSAT HIP 1 28 Aug 12:51:32 12:53:56 15° 266° (W) 12:56:21 437.405
UKube-1 28 Aug 12:53:34 12:57:49 54° 101° (E) 13:02:03 .
AIST 2 28 Aug 12:55:03 12:58:34 27° 305° (NW) 13:02:08 435.215
SRMSAT 28 Aug 13:00:42 13:04:04 15° 170° (S) 13:07:24 437.500
Oscar 19 28 Aug 13:01:43 13:06:32 41° 71° (ENE) 13:11:23 437.125/150
JUGNU 28 Aug 13:09:54 13:13:55 19° 184° (S) 13:17:55 437.505
Cosmos 2499 28 Aug 13:10:07 13:18:05 51° 280° (W) 13:25:30 435.465 / 435.565
AUBIESAT-1 28 Aug 13:27:30 13:28:52 12° 300° (WNW) 13:30:13 437.475
PCSat 28 Aug 13:28:37 13:31:08 13° 312° (NW) 13:33:40 145.827
50 SAT 28 Aug 13:35:42 13:38:02 16° 290° (WNW) 13:40:23 437.505
VELOX 1 28 Aug 13:37:09 13:40:42 24° 291° (WNW) 13:44:13 145.980
CUBEBUG 1 28 Aug 13:37:19 13:40:24 19° 292° (WNW) 13:43:28 437.445
JAS-2 28 Aug 13:43:30 13:46:20 15° 268° (W) 13:49:16 435.910
SPROUT 28 Aug 13:50:06 13:53:51 30° 288° (WNW) 13:57:33 437.525
DX 1 28 Aug 13:51:24 13:54:55 24° 290° (WNW) 13:58:24 434.975-435.025
SWISSCUBE 28 Aug 14:04:50 14:07:03 13° 93° (E) 14:09:17 437.505
TISAT 1 28 Aug 14:05:24 14:09:37 75° 103° (ESE) 14:13:46 437.305
ITAMSAT 1 28 Aug 14:18:18 14:22:45 30° 69° (ENE) 14:27:12 435.822/435.867
Gurwin Techsat 1B 28 Aug 14:18:51 14:24:09 77° 257° (WSW) 14:29:29 435.225
O/OREOS (USA 219) 28 Aug 14:19:11 14:23:25 41° 294° (WNW) 14:27:43 437.305
BEESAT 28 Aug 14:20:57 14:24:13 18° 95° (E) 14:27:27 436.000
AO-85 28 Aug 14:26:32 14:30:39 57° 59° (ENE) 14:34:30 145.980
UKube-1 28 Aug 14:31:57 14:33:20 11° 295° (WNW) 14:34:44 .
Oscar 19 28 Aug 14:42:19 14:45:58 19° 266° (W) 14:49:38 437.125/150
GONETS M04 28 Aug 14:46:24 14:47:03 10° 298° (WNW) 14:47:42
AO-7 28 Aug 14:48:26 14:56:04 41° 64° (ENE) 15:03:42 29.400- 29.500
SRMSAT 28 Aug 14:48:27 14:52:31 19° 180° (S) 14:56:36 437.500
JUGNU 28 Aug 14:59:45 15:02:12 13° 194° (SSW) 15:04:38 437.505
ISS 28 Aug 15:03:02 15:05:58 30° 36° (NE) 15:08:54 145.825
ITUPSAT 1 28 Aug 15:07:50 15:12:33 60° 101° (E) 15:17:16 437.325
SWISSCUBE 28 Aug 15:40:28 15:45:05 52° 287° (WNW) 15:49:42 437.505
KKS-1 28 Aug 15:50:21 15:53:10 16° 94° (E) 15:55:58 437.445
BEESAT 28 Aug 15:57:41 16:02:04 38° 289° (WNW) 16:06:27 436.000
ITAMSAT 1 28 Aug 15:57:45 16:02:07 27° 263° (W) 16:06:30 435.822/435.867
MOZHAYETS 4 28 Aug 16:02:13 16:06:18 32° 97° (E) 16:10:22
HORYU 2 28 Aug 16:07:29 16:10:12 16° 67° (ENE) 16:12:55 437.375
STARS 28 Aug 16:23:17 16:26:18 18° 95° (E) 16:29:17 437.465
Cosmos 2491 28 Aug 16:27:57 16:29:06 10° 76° (ENE) 16:30:15 435.465 / 435.565
SRMSAT 28 Aug 16:37:37 16:40:59 15° 190° (S) 16:44:20 437.500
ISS 28 Aug 16:39:47 16:42:17 20° 231° (SW) 16:44:47 145.825
AO-7 28 Aug 16:41:04 16:48:44 40° 260° (W) 16:56:26 29.400- 29.500
ITUPSAT 1 28 Aug 16:47:51 16:49:50 13° 296° (WNW) 16:51:49 437.325
